QPF
0.05 0.05 0.05 0.04 0.02 0.00 0.00 0.01 0.02 0.03 0.03 0.02 0.03 0.02 0.04 0.05 0.04 0.05 0.04 0.04 0.03 0.04 0.06 0.05 0.08 0.09 0.11 0.13 0.11 0.11 0.10 0.09 0.07 0.08 0.08 0.06 0.04 0.04 0.05 0.04 0.04 0.04 0.03
0.05 0.06 0.07 0.04 0.01 0.01 0.00 0.01 0.02 0.03 0.02 0.02 0.03 0.04 0.04 0.04 0.04 0.04 0.04 0.04 0.03 0.04 0.06 0.07 0.09 0.11 0.11 0.13 0.11 0.10 0.10 0.08 0.07 0.07 0.08 0.07 0.06 0.07 0.07 0.04 0.04 0.04 0.04
0.03 0.03 0.02 0.01 0.01 0.01 0.00 0.01 0.01 0.02 0.02 0.02 0.03 0.03 0.03 0.03 0.03 0.04 0.05 0.04 0.03 0.04 0.05 0.05 0.08 0.10 0.11 0.12 0.09 0.08 0.10 0.11 0.08 0.05 0.06 0.05 0.06 0.08 0.06 0.05 0.05 0.05 0.04
0.02 0.02 0.02 0.01 0.01 0.01 0.01 0.01 0.01 0.01 0.02 0.02 0.02 0.03 0.03 0.04 0.06 0.06 0.05 0.05 0.04 0.05 0.04 0.04 0.07 0.10 0.10 0.10 0.07 0.06 0.09 0.09 0.08 0.06 0.04 0.03 0.04 0.07 0.06 0.04 0.04 0.03 0.04
0.01 0.01 0.01 0.01 0.01 0.01 0.01 0.01 0.01 0.02 0.02 0.01 0.01 0.01 0.01 0.02 0.04 0.05 0.05 0.06 0.05 0.03 0.03 0.04 0.05 0.07 0.08 0.07 0.06 0.07 0.08 0.08 0.08 0.08 0.06 0.06 0.05 0.04 0.05 0.06 0.04 0.03 0.03
0.01 0.01 0.01 0.01 0.01 0.01 0.01 0.01 0.02 0.02 0.02 0.01 0.01 0.01 0.01 0.01 0.03 0.05 0.06 0.06 0.06 0.05 0.04 0.04 0.04 0.04 0.05 0.05 0.05 0.05 0.06 0.08 0.09 0.07 0.06 0.06 0.06 0.06 0.05 0.04 0.04 0.04 0.02
0.01 0.01 0.01 0.01 0.01 0.01 0.01 0.01 0.02 0.02 0.01 0.01 0.01 0.01 0.01 0.01 0.02 0.03 0.05 0.06 0.04 0.06 0.08 0.06 0.06 0.05 0.06 0.05 0.06 0.06 0.05 0.06 0.07 0.07 0.06 0.07 0.06 0.06 0.06 0.06 0.05 0.04 0.02
0.01 0.01 0.01 0.01 0.01 0.01 0.01 0.01 0.01 0.01 0.01 0.01 0.00 0.00 0.01 0.01 0.01 0.02 0.03 0.04 0.03 0.03 0.05 0.07 0.08 0.07 0.07 0.06 0.08 0.06 0.06 0.06 0.06 0.06 0.08 0.09 0.09 0.08 0.07 0.08 0.09 0.08 0.06
0.01 0.01 0.01 0.01 0.01 0.01 0.01 0.01 0.01 0.01 0.01 0.01 0.01 0.01 0.01 0.01 0.01 0.02 0.02 0.03 0.03 0.03 0.04 0.06 0.10 0.10 0.08 0.08 0.08 0.06 0.05 0.05 0.06 0.06 0.07 0.07 0.07 0.08 0.07 0.07 0.10 0.11 0.08
0.01 0.00 0.00 0.01 0.01 0.01 0.02 0.02 0.01 0.02 0.02 0.02 0.02 0.02 0.01 0.01 0.01 0.01 0.02 0.02 0.03 0.03 0.04 0.04 0.06 0.08 0.09 0.07 0.07 0.06 0.04 0.04 0.05 0.05 0.05 0.06 0.06 0.08 0.07 0.07 0.09 0.09 0.07
0.00 0.00 0.00 0.01 0.01 0.01 0.01 0.01 0.01 0.01 0.01 0.01 0.01 0.00 0.00 0.01 0.01 0.01 0.01 0.02 0.02 0.02 0.02 0.03 0.04 0.04 0.05 0.05 0.06 0.05 0.06 0.07 0.06 0.05 0.04 0.06 0.07 0.06 0.07 0.06 0.06 0.06 0.06
0.00 0.00 0.01 0.01 0.01 0.01 0.01 0.01 0.00 0.00 0.00 0.00 0.00 0.00 0.00 0.01 0.01 0.01 0.01 0.02 0.01 0.02 0.02 0.03 0.03 0.03 0.03 0.03 0.03 0.03 0.04 0.06 0.07 0.06 0.05 0.06 0.05 0.05 0.05 0.04 0.04 0.05 0.05
0.00 0.00 0.01 0.01 0.01 0.01 0.02 0.01 0.01 0.00 0.00 0.00 0.00 0.00 0.00 0.01 0.02 0.02 0.02 0.02 0.02 0.02 0.02 0.02 0.03 0.04 0.04 0.04 0.03 0.03 0.03 0.04 0.06 0.06 0.05 0.05 0.04 0.03 0.04 0.04 0.04 0.05 0.06
0.00 0.00 0.01 0.01 0.01 0.01 0.02 0.02 0.01 0.00 0.00 0.00 0.00 0.00 0.01 0.02 0.02 0.02 0.02 0.02 0.02 0.02 0.02 0.03 0.04 0.03 0.03 0.03 0.03 0.02 0.02 0.03 0.04 0.04 0.04 0.04 0.04 0.04 0.04 0.05 0.05 0.05 0.06
0.00 0.00 0.00 0.01 0.01 0.01 0.01 0.01 0.01 0.00 0.00 0.00 0.01 0.02 0.02 0.02 0.03 0.03 0.03 0.02 0.02 0.02 0.03 0.04 0.03 0.02 0.02 0.02 0.02 0.02 0.02 0.02 0.03 0.03 0.03 0.04 0.03 0.02 0.03 0.03 0.04 0.03 0.03
0.00 0.00 0.00 0.01 0.01 0.01 0.01 0.01 0.01 0.01 0.01 0.01 0.03 0.03 0.03 0.03 0.03 0.02 0.01 0.02 0.02 0.04 0.05 0.05 0.04 0.04 0.03 0.03 0.02 0.02 0.02 0.03 0.03 0.04 0.03 0.02 0.02 0.02 0.02 0.03 0.03 0.04 0.04
0.01 0.00 0.00 0.01 0.01 0.02 0.02 0.02 0.02 0.02 0.03 0.05 0.06 0.05 0.03 0.02 0.01 0.01 0.01 0.01 0.02 0.03 0.04 0.05 0.07 0.07 0.04 0.03 0.01 0.01 0.02 0.03 0.03 0.03 0.02 0.01 0.02 0.02 0.03 0.04 0.04 0.04 0.04
0.01 0.01 0.01 0.01 0.01 0.02 0.05 0.06 0.05 0.03 0.03 0.04 0.04 0.03 0.02 0.01 0.01 0.01 0.01 0.02 0.02 0.03 0.04 0.06 0.06 0.05 0.03 0.02 0.01 0.00 0.01 0.01 0.02 0.02 0.02 0.02 0.02 0.04 0.05 0.04 0.03 0.03 0.02
0.01 0.01 0.01 0.01 0.01 0.02 0.04 0.05 0.04 0.03 0.03 0.02 0.03 0.03 0.02 0.02 0.03 0.02 0.01 0.01 0.02 0.02 0.03 0.03 0.02 0.02 0.02 0.01 0.00 0.00 0.01 0.01 0.01 0.01 0.02 0.02 0.02 0.03 0.04 0.03 0.03 0.02 0.01
0.01 0.01 0.01 0.01 0.01 0.01 0.02 0.03 0.03 0.02 0.02 0.02 0.04 0.06 0.06 0.05 0.04 0.03 0.02 0.01 0.02 0.02 0.02 0.02 0.02 0.01 0.01 0.02 0.02 0.02 0.02 0.02 0.02 0.02 0.02 0.01 0.01 0.02 0.02 0.02 0.03 0.02 0.03
0.02 0.02 0.02 0.02 0.02 0.02 0.02 0.02 0.02 0.02 0.02 0.02 0.04 0.05 0.06 0.08 0.08 0.06 0.06 0.04 0.03 0.02 0.02 0.02 0.02 0.03 0.03 0.03 0.04 0.04 0.04 0.03 0.02 0.01 0.01 0.01 0.01 0.01 0.02 0.02 0.03 0.04 0.04
0.03 0.04 0.05 0.04 0.03 0.02 0.02 0.03 0.03 0.03 0.03 0.03 0.03 0.04 0.03 0.02 0.03 0.04 0.04 0.04 0.03 0.03 0.03 0.03 0.02 0.02 0.01 0.01 0.02 0.02 0.02 0.02 0.02 0.01 0.01 0.01 0.02 0.02 0.03 0.03 0.04 0.05 0.04
0.05 0.05 0.05 0.05 0.04 0.03 0.02 0.02 0.03 0.04 0.04 0.04 0.03 0.03 0.03 0.02 0.01 0.01 0.01 0.01 0.02 0.02 0.02 0.02 0.02 0.01 0.01 0.02 0.02 0.01 0.01 0.02 0.01 0.02 0.02 0.02 0.02 0.02 0.02 0.02 0.04 0.05 0.04
0.06 0.06 0.04 0.03 0.03 0.03 0.03 0.02 0.03 0.03 0.03 0.03 0.03 0.02 0.03 0.02 0.01 0.01 0.01 0.01 0.01 0.01 0.01 0.02 0.02 0.01 0.01 0.02 0.02 0.01 0.01 0.01 0.01 0.01 0.02 0.02 0.02 0.02 0.02 0.03 0.04 0.04 0.05
0.07 0.07 0.05 0.04 0.04 0.04 0.03 0.03 0.02 0.02 0.01 0.01 0.02 0.02 0.02 0.02 0.02 0.02 0.02 0.01 0.01 0.01 0.01 0.01 0.01 0.01 0.01 0.01 0.01 0.01 0.01 0.01 0.01 0.01 0.01 0.02 0.02 0.02 0.03 0.04 0.04 0.05 0.05
0.04 0.05 0.06 0.06 0.05 0.05 0.05 0.05 0.04 0.04 0.04 0.03 0.02 0.02 0.01 0.01 0.01 0.02 0.02 0.02 0.01 0.01 0.02 0.02 0.02 0.01 0.01 0.01 0.01 0.01 0.01 0.01 0.02 0.02 0.02 0.03 0.04 0.04 0.04 0.04 0.05 0.05 0.05
MSLP
1012.23 1012.53 1012.88 1013.23 1013.57 1013.90 1014.19 1014.44 1014.62 1014.72 1014.74 1014.69 1014.57 1014.41 1014.24 1014.08 1013.97 1013.92 1013.91 1013.95 1014.02 1014.09 1014.14 1014.17 1014.16 1014.13 1014.09 1014.05 1014.02 1013.99 1013.96 1013.90 1013.79 1013.61 1013.35 1013.02 1012.62 1012.17 1011.71 1011.27 1010.88 1010.58 1010.37
1011.73 1012.05 1012.40 1012.76 1013.11 1013.44 1013.75 1014.01 1014.22 1014.37 1014.45 1014.46 1014.41 1014.30 1014.17 1014.03 1013.90 1013.81 1013.76 1013.76 1013.78 1013.82 1013.86 1013.89 1013.90 1013.89 1013.86 1013.84 1013.81 1013.79 1013.76 1013.73 1013.65 1013.52 1013.33 1013.05 1012.70 1012.28 1011.82 1011.34 1010.87 1010.46 1010.12
1011.16 1011.49 1011.85 1012.22 1012.58 1012.92 1013.23 1013.52 1013.76 1013.96 1014.11 1014.20 1014.22 1014.19 1014.10 1013.99 1013.86 1013.75 1013.67 1013.62 1013.61 1013.63 1013.66 1013.69 1013.71 1013.71 1013.69 1013.67 1013.63 1013.60 1013.56 1013.52 1013.47 1013.38 1013.24 1013.03 1012.75 1012.38 1011.94 1011.45 1010.94 1010.44 1010.00
1010.56 1010.92 1011.30 1011.69 1012.07 1012.42 1012.74 1013.04 1013.32 1013.57 1013.79 1013.96 1014.06 1014.10 1014.08 1014.00 1013.89 1013.77 1013.67 1013.60 1013.56 1013.56 1013.58 1013.61 1013.63 1013.63 1013.61 1013.56 1013.49 1013.42 1013.36 1013.30 1013.24 1013.17 1013.08 1012.94 1012.72 1012.42 1012.03 1011.56 1011.03 1010.48 1009.96
1010.03 1010.42 1010.85 1011.27 1011.66 1012.02 1012.36 1012.67 1012.98 1013.28 1013.55 1013.79 1013.98 1014.09 1014.13 1014.10 1014.01 1013.90 1013.79 1013.70 1013.64 1013.63 1013.64 1013.66 1013.68 1013.66 1013.61 1013.52 1013.41 1013.28 1013.16 1013.06 1012.98 1012.92 1012.86 1012.77 1012.62 1012.39 1012.06 1011.63 1011.11 1010.53 1009.94
1009.63 1010.08 1010.55 1011.01 1011.43 1011.80 1012.15 1012.48 1012.81 1013.14 1013.47 1013.76 1014.01 1014.19 1014.29 1014.30 1014.25 1014.15 1014.04 1013.93 1013.86 1013.83 1013.83 1013.83 1013.83 1013.79 1013.70 1013.56 1013.39 1013.19 1013.00 1012.84 1012.73 1012.65 1012.60 1012.55 1012.45 1012.29 1012.01 1011.62 1011.12 1010.54 1009.92
1009.45 1009.95 1010.47 1010.97 1011.42 1011.81 1012.17 1012.51 1012.85 1013.20 1013.55 1013.89 1014.19 1014.42 1014.56 1014.62 1014.58 1014.50 1014.38 1014.27 1014.19 1014.13 1014.11 1014.09 1014.06 1013.99 1013.85 1013.66 1013.42 1013.16 1012.90 1012.68 1012.51 1012.40 1012.34 1012.30 1012.24 1012.12 1011.89 1011.54 1011.07 1010.49 1009.84
1009.50 1010.06 1010.64 1011.17 1011.65 1012.06 1012.42 1012.76 1013.10 1013.45 1013.82 1014.18 1014.50 1014.76 1014.93 1015.00 1014.99 1014.91 1014.79 1014.67 1014.56 1014.49 1014.44 1014.40 1014.34 1014.23 1014.06 1013.82 1013.52 1013.20 1012.87 1012.59 1012.37 1012.22 1012.13 1012.09 1012.04 1011.93 1011.73 1011.41 1010.95 1010.38 1009.72
1009.77 1010.40 1011.02 1011.59 1012.08 1012.50 1012.86 1013.19 1013.52 1013.87 1014.23 1014.58 1014.90 1015.17 1015.34 1015.42 1015.41 1015.32 1015.19 1015.06 1014.94 1014.84 1014.77 1014.71 1014.63 1014.49 1014.30 1014.02 1013.69 1013.32 1012.95 1012.61 1012.33 1012.14 1012.01 1011.93 1011.86 1011.75 1011.56 1011.24 1010.80 1010.23 1009.57
1010.23 1010.90 1011.57 1012.16 1012.67 1013.09 1013.44 1013.75 1014.06 1014.38 1014.71 1015.04 1015.34 1015.58 1015.74 1015.81 1015.78 1015.68 1015.54 1015.39 1015.25 1015.15 1015.06 1014.99 1014.90 1014.76 1014.55 1014.27 1013.92 1013.52 1013.12 1012.74 1012.42 1012.17 1011.99 1011.87 1011.76 1011.62 1011.40 1011.08 1010.64 1010.08 1009.42
1010.79 1011.52 1012.20 1012.81 1013.32 1013.73 1014.06 1014.35 1014.63 1014.91 1015.20 1015.49 1015.74 1015.95 1016.07 1016.10 1016.05 1015.93 1015.78 1015.62 1015.48 1015.36 1015.28 1015.21 1015.13 1015.00 1014.81 1014.54 1014.19 1013.80 1013.38 1012.97 1012.61 1012.32 1012.08 1011.90 1011.73 1011.55 1011.30 1010.95 1010.50 1009.95 1009.31
1011.40 1012.15 1012.85 1013.45 1013.94 1014.33 1014.64 1014.90 1015.14 1015.38 1015.62 1015.85 1016.06 1016.21 1016.28 1016.28 1016.19 1016.05 1015.89 1015.72 1015.59 1015.49 1015.42 1015.37 1015.31 1015.21 1015.05 1014.80 1014.48 1014.10 1013.68 1013.27 1012.88 1012.54 1012.25 1012.00 1011.77 1011.52 1011.23 1010.86 1010.40 1009.86 1009.24
1011.98 1012.75 1013.44 1014.01 1014.48 1014.84 1015.11 1015.34 1015.54 1015.74 1015.93 1016.11 1016.25 1016.35 1016.37 1016.32 1016.20 1016.04 1015.87 1015.71 1015.59 1015.51 1015.47 1015.46 1015.44 1015.37 1015.25 1015.04 1014.75 1014.39 1013.99 1013.56 1013.15 1012.77 1012.43 1012.12 1011.83 1011.53 1011.19 1010.79 1010.33 1009.79 1009.20
1012.50 1013.26 1013.92 1014.46 1014.88 1015.20 1015.45 1015.64 1015.81 1015.97 1016.12 1016.25 1016.33 1016.37 1016.34 1016.24 1016.10 1015.92 1015.75 1015.60 1015.50 1015.45 1015.45 1015.47 1015.49 1015.47 1015.38 1015.21 1014.96 1014.62 1014.23 1013.80 1013.37 1012.96 1012.58 1012.22 1011.87 1011.51 1011.14 1010.72 1010.25 1009.72 1009.16
1012.95 1013.67 1014.28 1014.77 1015.15 1015.43 1015.65 1015.82 1015.97 1016.10 1016.21 1016.29 1016.33 1016.31 1016.23 1016.10 1015.92 1015.73 1015.56 1015.42 1015.34 1015.32 1015.36 1015.41 1015.46 1015.48 1015.42 1015.28 1015.05 1014.74 1014.36 1013.93 1013.49 1013.06 1012.64 1012.23 1011.84 1011.45 1011.04 1010.60 1010.12 1009.61 1009.08
1013.33 1013.99 1014.54 1014.97 1015.30 1015.55 1015.75 1015.91 1016.04 1016.16 1016.25 1016.30 1016.29 1016.23 1016.10 1015.93 1015.72 1015.52 1015.34 1015.21 1015.15 1015.15 1015.20 1015.28 1015.36 1015.39 1015.36 1015.24 1015.02 1014.72 1014.34 1013.92 1013.47 1013.02 1012.58 1012.14 1011.72 1011.29 1010.86 1010.40 1009.92 1009.41 1008.88
1013.66 1014.25 1014.73 1015.10 1015.39 1015.61 1015.80 1015.96 1016.09 1016.21 1016.28 1016.31 1016.27 1016.16 1016.00 1015.78 1015.54 1015.32 1015.12 1014.99 1014.93 1014.94 1015.00 1015.09 1015.17 1015.21 1015.18 1015.06 1014.85 1014.55 1014.18 1013.76 1013.31 1012.86 1012.40 1011.95 1011.50 1011.05 1010.59 1010.11 1009.61 1009.09 1008.56
1013.95 1014.47 1014.88 1015.20 1015.46 1015.67 1015.85 1016.02 1016.17 1016.29 1016.36 1016.37 1016.30 1016.16 1015.95 1015.69 1015.41 1015.15 1014.93 1014.78 1014.71 1014.71 1014.76 1014.84 1014.91 1014.94 1014.90 1014.78 1014.57 1014.27 1013.90 1013.49 1013.04 1012.58 1012.12 1011.66 1011.20 1010.72 1010.23 1009.72 1009.19 1008.64 1008.08
1014.23 1014.68 1015.03 1015.31 1015.54 1015.75 1015.95 1016.14 1016.31 1016.44 1016.51 1016.50 1016.41 1016.22 1015.97 1015.66 1015.34 1015.03 1014.78 1014.59 1014.49 1014.46 1014.49 1014.55 1014.60 1014.61 1014.56 1014.43 1014.21 1013.91 1013.54 1013.13 1012.69 1012.24 1011.77 1011.30 1010.82 1010.33 1009.81 1009.26 1008.68 1008.08 1007.47
1014.49 1014.88 1015.19 1015.44 1015.67 1015.89 1016.10 1016.31 1016.50 1016.64 1016.71 1016.68 1016.56 1016.34 1016.03 1015.67 1015.30 1014.94 1014.64 1014.42 1014.28 1014.22 1014.22 1014.24 1014.27 1014.26 1014.19 1014.04 1013.81 1013.51 1013.15 1012.74 1012.31 1011.85 1011.39 1010.91 1010.41 1009.89 1009.33 1008.73 1008.10 1007.44 1006.76
1014.74 1015.08 1015.36 1015.60 1015.83 1016.06 1016.29 1016.52 1016.73 1016.87 1016.93 1016.88 1016.73 1016.46 1016.11 1015.70 1015.27 1014.87 1014.52 1014.26 1014.08 1013.98 1013.95 1013.95 1013.95 1013.91 1013.82 1013.66 1013.43 1013.12 1012.76 1012.35 1011.91 1011.45 1010.98 1010.48 1009.96 1009.40 1008.80 1008.16 1007.47 1006.74 1005.99
1014.95 1015.26 1015.53 1015.76 1016.00 1016.25 1016.50 1016.74 1016.95 1017.08 1017.13 1017.05 1016.86 1016.55 1016.15 1015.70 1015.23 1014.78 1014.40 1014.10 1013.90 1013.77 1013.71 1013.69 1013.67 1013.61 1013.51 1013.33 1013.08 1012.76 1012.39 1011.97 1011.52 1011.04 1010.55 1010.03 1009.48 1008.89 1008.25 1007.56 1006.81 1006.02 1005.21
1015.12 1015.41 1015.67 1015.91 1016.16 1016.42 1016.68 1016.92 1017.12 1017.24 1017.25 1017.15 1016.92 1016.57 1016.13 1015.65 1015.15 1014.68 1014.28 1013.96 1013.74 1013.60 1013.53 1013.49 1013.45 1013.38 1013.25 1013.06 1012.79 1012.45 1012.05 1011.60 1011.13 1010.62 1010.10 1009.55 1008.96 1008.34 1007.66 1006.93 1006.14 1005.31 1004.45
1015.24 1015.53 1015.78 1016.03 1016.28 1016.55 1016.80 1017.03 1017.21 1017.30 1017.28 1017.14 1016.87 1016.50 1016.04 1015.54 1015.03 1014.57 1014.17 1013.85 1013.63 1013.49 1013.41 1013.36 1013.31 1013.22 1013.07 1012.85 1012.55 1012.18 1011.74 1011.26 1010.74 1010.20 1009.63 1009.04 1008.42 1007.76 1007.06 1006.30 1005.49 1004.63 1003.74
1015.32 1015.60 1015.86 1016.11 1016.36 1016.61 1016.85 1017.06 1017.20 1017.25 1017.19 1017.02 1016.73 1016.34 1015.88 1015.39 1014.90 1014.45 1014.08 1013.79 1013.59 1013.46 1013.39 1013.33 1013.27 1013.16 1012.98 1012.72 1012.38 1011.96 1011.48 1010.94 1010.37 1009.77 1009.16 1008.53 1007.88 1007.20 1006.48 1005.71 1004.88 1004.02 1003.11
1015.36 1015.64 1015.90 1016.15 1016.40 1016.63 1016.84 1017.00 1017.10 1017.11 1017.01 1016.81 1016.51 1016.12 1015.68 1015.21 1014.77 1014.37 1014.04 1013.79 1013.62 1013.52 1013.45 1013.40 1013.32 1013.18 1012.97 1012.67 1012.28 1011.81 1011.27 1010.67 1010.04 1009.40 1008.74 1008.08 1007.40 1006.70 1005.97 1005.20 1004.38 1003.52 1002.61
Thickness
5805 5803 5799 5796 5791 5786 5782 5778 5775 5772 5770 5769 5767 5766 5765 5765 5765 5764 5762 5761 5760 5759 5758 5759 5756 5756 5755 5753 5753 5751 5748 5748 5748 5746 5744 5746 5748 5747 5746 5746 5746 5744 5743
5806 5802 5800 5797 5793 5788 5785 5781 5778 5776 5773 5772 5770 5769 5768 5767 5767 5765 5763 5762 5761 5760 5760 5758 5758 5757 5754 5752 5751 5749 5748 5748 5748 5745 5742 5740 5740 5742 5746 5745 5743 5743 5742
5809 5805 5801 5799 5796 5791 5788 5785 5781 5779 5776 5775 5773 5772 5768 5767 5766 5764 5763 5763 5761 5760 5759 5758 5758 5756 5756 5753 5751 5750 5748 5746 5747 5748 5744 5738 5736 5738 5742 5742 5742 5741 5741
5816 5811 5806 5802 5799 5796 5793 5788 5784 5780 5778 5777 5775 5772 5768 5766 5765 5765 5765 5763 5762 5760 5759 5758 5757 5756 5756 5753 5752 5753 5751 5747 5746 5746 5746 5746 5745 5738 5735 5738 5741 5740 5739
5821 5816 5811 5807 5805 5801 5797 5792 5786 5782 5780 5778 5776 5772 5771 5770 5769 5767 5764 5762 5762 5760 5760 5758 5756 5756 5755 5754 5753 5751 5750 5749 5748 5747 5747 5745 5743 5743 5739 5735 5737 5739 5740
5824 5820 5816 5812 5807 5805 5800 5795 5789 5784 5782 5780 5778 5774 5772 5770 5768 5765 5764 5763 5762 5761 5760 5758 5756 5756 5756 5754 5753 5752 5750 5749 5748 5748 5749 5746 5744 5743 5742 5738 5736 5736 5738
5825 5821 5816 5812 5808 5805 5801 5797 5791 5786 5784 5781 5779 5776 5773 5771 5768 5767 5765 5764 5764 5762 5760 5760 5757 5757 5756 5754 5753 5751 5751 5750 5748 5747 5747 5748 5748 5747 5744 5740 5738 5736 5737
5828 5824 5819 5815 5811 5807 5803 5799 5793 5788 5786 5783 5780 5778 5775 5774 5773 5769 5769 5767 5766 5765 5763 5760 5758 5757 5756 5755 5753 5753 5751 5750 5748 5748 5747 5746 5747 5747 5745 5741 5737 5733 5734
5828 5826 5822 5818 5814 5810 5805 5801 5796 5791 5787 5785 5781 5778 5776 5775 5773 5771 5769 5769 5767 5766 5763 5761 5759 5757 5756 5754 5753 5752 5751 5750 5749 5749 5747 5746 5747 5747 5746 5744 5741 5734 5730
5828 5827 5824 5820 5817 5813 5808 5803 5798 5792 5789 5786 5783 5780 5777 5775 5773 5771 5768 5767 5766 5765 5763 5760 5758 5757 5755 5754 5752 5751 5750 5749 5748 5746 5745 5744 5746 5745 5744 5743 5741 5738 5733
5826 5825 5823 5821 5817 5813 5808 5802 5798 5793 5789 5786 5782 5780 5778 5776 5773 5770 5768 5767 5765 5763 5761 5759 5757 5755 5754 5753 5751 5750 5749 5747 5746 5745 5743 5742 5742 5742 5743 5741 5739 5737 5733
5824 5823 5820 5817 5814 5811 5808 5803 5798 5794 5790 5787 5783 5779 5777 5775 5772 5770 5768 5766 5763 5761 5759 5757 5756 5754 5753 5752 5750 5748 5747 5745 5743 5742 5741 5740 5740 5738 5738 5737 5736 5734 5732
5818 5817 5814 5811 5809 5807 5805 5802 5798 5794 5791 5787 5782 5779 5776 5773 5770 5768 5766 5764 5761 5759 5757 5755 5754 5752 5751 5750 5748 5746 5744 5743 5742 5741 5739 5738 5736 5734 5734 5732 5732 5731 5730
5811 5810 5808 5806 5804 5803 5801 5799 5796 5794 5790 5786 5782 5777 5775 5773 5770 5767 5765 5762 5759 5757 5754 5753 5752 5750 5749 5748 5746 5744 5741 5740 5740 5739 5737 5736 5734 5732 5730 5729 5727 5726 5725
5804 5803 5802 5801 5799 5797 5796 5795 5793 5791 5788 5782 5779 5776 5774 5771 5768 5765 5762 5760 5757 5755 5752 5750 5748 5747 5745 5745 5743 5741 5739 5737 5736 5735 5734 5733 5731 5728 5726 5726 5724 5722 5720
5797 5797 5797 5795 5794 5792 5791 5789 5787 5785 5783 5778 5775 5773 5769 5766 5764 5761 5759 5756 5753 5751 5748 5746 5745 5743 5743 5740 5736 5734 5734 5733 5731 5730 5729 5729 5726 5723 5720 5718 5716 5714 5713
5791 5791 5791 5790 5789 5788 5787 5784 5783 5781 5777 5773 5771 5768 5764 5761 5759 5758 5755 5751 5748 5746 5744 5742 5740 5739 5736 5733 5730 5727 5728 5728 5726 5725 5724 5725 5725 5720 5718 5713 5709 5707 5705
5785 5785 5785 5785 5786 5785 5783 5780 5779 5775 5771 5767 5764 5763 5759 5757 5755 5751 5749 5746 5743 5741 5738 5736 5735 5733 5731 5727 5723 5721 5722 5723 5722 5721 5719 5717 5716 5714 5711 5710 5708 5705 5703
5780 5779 5780 5781 5780 5779 5777 5773 5771 5768 5764 5761 5758 5757 5754 5751 5748 5745 5742 5740 5738 5734 5732 5731 5729 5727 5725 5721 5717 5714 5717 5717 5717 5716 5714 5712 5710 5706 5702 5702 5701 5700 5700
5771 5770 5771 5771 5770 5770 5769 5764 5762 5759 5756 5754 5753 5751 5748 5745 5742 5740 5736 5735 5733 5729 5727 5725 5723 5721 5719 5715 5711 5707 5712 5712 5712 5711 5709 5705 5702 5698 5694 5695 5695 5693 5693
5760 5760 5760 5759 5759 5760 5758 5754 5752 5750 5750 5748 5746 5743 5741 5738 5736 5734 5731 5728 5726 5724 5721 5719 5718 5715 5713 5708 5704 5701 5703 5704 5704 5704 5703 5701 5694 5690 5687 5685 5687 5687 5685
5748 5748 5747 5746 5747 5747 5746 5743 5742 5743 5742 5739 5736 5734 5733 5732 5731 5726 5724 5721 5718 5716 5714 5712 5711 5710 5707 5703 5699 5694 5692 5691 5693 5694 5695 5693 5687 5683 5679 5678 5677 5675 5673
5737 5737 5735 5734 5735 5735 5734 5731 5731 5732 5730 5728 5726 5725 5724 5723 5722 5719 5716 5714 5711 5711 5708 5706 5704 5702 5701 5697 5692 5687 5684 5682 5682 5685 5683 5680 5677 5674 5673 5670 5669 5667 5668
5725 5726 5724 5723 5722 5723 5722 5721 5721 5720 5719 5717 5717 5716 5716 5715 5712 5710 5709 5707 5705 5702 5700 5698 5696 5695 5693 5690 5686 5683 5680 5676 5675 5675 5673 5670 5668 5667 5665 5664 5663 5662 5661
5714 5714 5711 5711 5711 5710 5710 5711 5710 5709 5709 5708 5708 5708 5708 5707 5703 5701 5699 5697 5694 5692 5689 5688 5686 5684 5681 5677 5671 5671 5671 5670 5668 5665 5665 5666 5665 5663 5662 5661 5658 5656 5653
5703 5702 5701 5701 5700 5700 5699 5699 5700 5698 5696 5697 5698 5700 5700 5698 5696 5693 5689 5684 5682 5678 5675 5672 5671 5671 5666 5662 5660 5658 5656 5655 5653 5654 5658 5656 5655 5654 5653 5652 5650 5648 5646